Slayton, MN

5:40 AM CDT on April 25, 2017 (GMT -0500)
Slayton

Weather History for KDVP - January, 2013

Change the Weather History Date:

Monday, January 21, 2013

  Actual Average (KOTG) Record (KOTG)
Temperature  
Mean Temperature -4 °F -  
Max Temperature 1 °F 21 °F 48 °F (2002)
Min Temperature -10 °F 6 °F -26 °F (1984)
Degree Days  
Heating Degree Days 70    
Moisture  
Dew Point -12 °F    
Average Humidity 70    
Maximum Humidity 78    
Minimum Humidity 64    
Precipitation  
Precipitation 0.00 in - - ()
Sea Level Pressure  
Sea Level Pressure 30.29 in    
Wind  
Wind Speed 18 mph (WNW)    
Max Wind Speed 26 mph    
Max Gust Speed 31 mph    
Visibility 10 miles    
Events      
Averages and records for this station are not official NWS values.
T = Trace of Precipitation, MM = Missing Value Source: NWS Daily Summary

Daily Weather History Graph

Daily Weather History Graph

Search for Another Location

Airport or City:

Trip Planner

Search our weather history database for the weather conditions in past years. The results will help you decide how hot, cold, wet, or windy it might be!

Date:

Astronomy

Jan. 21, 2013 Rise Set
Actual Time 7:50 AM CST 5:19 PM CST
Civil Twilight 7:18 AM CST 5:50 PM CST
Nautical Twilight 6:43 AM CST 6:25 PM CST
Astronomical Twilight 6:09 AM CST 7:00 PM CST
Moon 12:58 PM CST (1/21) 3:20 AM CST (1/21)
Length of Visible Light 10h 31m
Length of Day
9h 28m
Waxing Gibbous, 75% of the Moon is Illuminated
Jan 21
Waxing Gibbous
Jan 26
Full
Feb 3
Last Quarter
Feb 10
New
Feb 17
First Quarter

Hourly Weather History & Observations

Time (CST) Temp. Windchill Dew Point Humidity Pressure Visibility Wind Dir Wind Speed Gust Speed Precip Events Conditions
12:14 AM -4.0 °F -28.6 °F -12.8 °F 66% 30.30 in 10.0 mi NW 23.0 mph 28.8 mph N/A   Scattered Clouds
12:35 AM -5.1 °F -30.0 °F -13.9 °F 66% 30.31 in 10.0 mi NW 23.0 mph 28.8 mph N/A   Scattered Clouds
12:55 AM -6.0 °F -31.7 °F -14.8 °F 66% 30.32 in 10.0 mi WNW 24.2 mph - N/A   Scattered Clouds
1:15 AM -6.7 °F -33.6 °F -14.8 °F 68% 30.32 in 10.0 mi WNW 26.5 mph 29.9 mph N/A   Scattered Clouds
1:35 AM -7.6 °F -31.7 °F -16.1 °F 67% 30.32 in 10.0 mi NW 19.6 mph - N/A   Scattered Clouds
1:56 AM -8.5 °F -31.7 °F -17.1 °F 66% 30.33 in 10.0 mi NW 17.3 mph 24.2 mph N/A   Clear
2:14 AM -8.7 °F -32.5 °F -16.8 °F 68% 30.33 in 10.0 mi NW 18.4 mph 26.5 mph N/A   Clear
2:35 AM -8.7 °F -34.3 °F -17.5 °F 65% 30.33 in 10.0 mi NW 21.9 mph 31.1 mph N/A   Clear
3:15 AM -9.0 °F -34.2 °F -17.7 °F 66% 30.33 in 10.0 mi NW 20.7 mph 28.8 mph N/A   Clear
3:35 AM -9.0 °F -35.3 °F -17.7 °F 66% 30.32 in 10.0 mi WNW 23.0 mph 28.8 mph N/A   Clear
3:55 AM -9.4 °F -35.8 °F -17.3 °F 68% 30.32 in 10.0 mi WNW 23.0 mph 26.5 mph N/A   Clear
4:15 AM -9.4 °F -34.1 °F -16.8 °F 70% 30.32 in 10.0 mi WNW 19.6 mph - N/A   Clear
4:35 AM -9.4 °F -32.8 °F -16.8 °F 70% 30.32 in 10.0 mi WNW 17.3 mph - N/A   Clear
4:55 AM -9.4 °F -31.4 °F -16.8 °F 70% 30.32 in 10.0 mi WNW 15.0 mph 19.6 mph N/A   Clear
5:15 AM -9.6 °F -30.0 °F -16.8 °F 71% 30.32 in 10.0 mi WNW 12.7 mph 21.9 mph N/A   Clear
5:55 AM -9.6 °F -33.1 °F -16.6 °F 71% 30.31 in 10.0 mi WNW 17.3 mph - N/A   Clear
6:15 AM -9.6 °F -33.1 °F -17.0 °F 70% 30.31 in 10.0 mi WNW 17.3 mph - N/A   Clear
6:35 AM -9.8 °F -29.3 °F -17.0 °F 71% 30.30 in 10.0 mi WNW 11.5 mph - N/A   Clear
6:55 AM -9.9 °F -32.8 °F -17.1 °F 71% 30.31 in 10.0 mi WNW 16.1 mph - N/A   Clear
7:15 AM -10.3 °F -30.9 °F -17.1 °F 72% 30.30 in 10.0 mi WNW 12.7 mph - N/A   Clear
7:35 AM -10.3 °F -29.0 °F -17.1 °F 72% 30.30 in 10.0 mi WNW 10.4 mph - N/A   Clear
7:55 AM -10.3 °F -30.9 °F -16.8 °F 73% 30.30 in 10.0 mi WNW 12.7 mph - N/A   Clear
8:15 AM -10.3 °F -29.0 °F -17.1 °F 72% 30.31 in 10.0 mi WNW 10.4 mph - N/A   Clear
8:35 AM -9.6 °F -29.1 °F -16.8 °F 71% 30.31 in 10.0 mi WNW 11.5 mph - N/A   Clear
8:55 AM -8.9 °F -29.9 °F -16.6 °F 69% 30.32 in 10.0 mi West 13.8 mph - N/A   Clear
9:14 AM -8.5 °F -30.2 °F -16.1 °F 70% 30.32 in 10.0 mi West 15.0 mph - N/A   Clear
9:35 AM -7.4 °F -30.3 °F -15.2 °F 69% 30.33 in 10.0 mi West 17.3 mph 23.0 mph N/A   Clear
9:55 AM -6.3 °F -28.9 °F -14.3 °F 69% 30.33 in 10.0 mi WNW 17.3 mph 21.9 mph N/A   Clear
10:15 AM -5.8 °F -28.2 °F -14.1 °F 67% 30.33 in 10.0 mi WNW 17.3 mph - N/A   Clear
10:35 AM -4.7 °F -26.1 °F -13.0 °F 68% 30.33 in 10.0 mi WNW 16.1 mph - N/A   Clear
10:55 AM -4.2 °F -26.7 °F -12.8 °F 66% 30.33 in 10.0 mi WNW 18.4 mph - N/A   Clear
11:15 AM -3.1 °F -24.0 °F -11.4 °F 68% 30.33 in 10.0 mi WNW 16.1 mph - N/A   Clear
11:35 AM -3.1 °F -24.7 °F -11.4 °F 68% 30.33 in 10.0 mi West 17.3 mph 23.0 mph N/A   Clear
11:55 AM -2.2 °F -23.5 °F -10.8 °F 67% 30.32 in 10.0 mi West 17.3 mph 24.2 mph N/A   Clear
12:15 PM -1.8 °F -23.0 °F -10.7 °F 66% 30.31 in 10.0 mi WNW 17.3 mph - N/A   Clear
12:35 PM -1.7 °F -23.4 °F -11.0 °F 64% 30.30 in 10.0 mi WNW 18.4 mph 23.0 mph N/A   Clear
12:55 PM -0.8 °F -21.6 °F -9.8 °F 66% 30.29 in 10.0 mi West 17.3 mph - N/A   Clear
1:15 PM -0.4 °F -21.2 °F -9.4 °F 66% 30.27 in 10.0 mi WNW 17.3 mph - N/A   Clear
1:35 PM 0.1 °F -21.0 °F -9.2 °F 65% 30.27 in 10.0 mi West 18.4 mph - N/A   Clear
1:55 PM 0.5 °F -21.1 °F -9.0 °F 64% 30.26 in 10.0 mi West 19.6 mph 23.0 mph N/A   Clear
2:15 PM 0.5 °F -20.6 °F -8.9 °F 65% 30.26 in 10.0 mi WNW 18.4 mph - N/A   Clear
2:35 PM 1.2 °F -19.6 °F -8.3 °F 64% 30.26 in 10.0 mi WNW 18.4 mph 24.2 mph N/A   Clear
2:55 PM 1.2 °F -19.1 °F -8.5 °F 64% 30.26 in 10.0 mi West 17.3 mph 24.2 mph N/A   Clear
3:15 PM 1.4 °F -19.9 °F -8.3 °F 64% 30.27 in 10.0 mi West 19.6 mph - N/A   Clear
3:34 PM 1.2 °F -18.4 °F -8.3 °F 64% 30.27 in 10.0 mi West 16.1 mph 23.0 mph N/A   Clear
3:55 PM 1.0 °F -17.3 °F -8.3 °F 65% 30.27 in 10.0 mi WNW 13.8 mph - N/A   Clear
4:14 PM 0.9 °F -19.5 °F -8.5 °F 65% 30.27 in 10.0 mi WNW 17.3 mph - N/A   Clear
4:35 PM 0.5 °F -18.7 °F -8.7 °F 65% 30.27 in 10.0 mi WNW 15.0 mph - N/A   Clear
4:55 PM 0.1 °F -18.5 °F -8.7 °F 66% 30.27 in 10.0 mi West 13.8 mph - N/A   Clear
5:15 PM -0.6 °F -16.9 °F -8.5 °F 69% 30.27 in 10.0 mi WNW 10.4 mph - N/A   Clear
5:35 PM -0.9 °F -17.4 °F -8.1 °F 72% 30.27 in 10.0 mi West 10.4 mph - N/A   Clear
5:55 PM -1.1 °F -16.6 °F -7.8 °F 73% 30.27 in 10.0 mi West 9.2 mph - N/A   Clear
6:15 PM -1.3 °F -20.3 °F -8.0 °F 73% 30.27 in 10.0 mi West 13.8 mph - N/A   Clear
6:35 PM -1.3 °F -19.6 °F -8.1 °F 73% 30.27 in 10.0 mi West 12.7 mph - N/A   Clear
6:55 PM -1.3 °F -19.6 °F -8.5 °F 72% 30.27 in 10.0 mi West 12.7 mph - N/A   Clear
7:15 PM -1.7 °F -19.2 °F -8.5 °F 73% 30.27 in 10.0 mi West 11.5 mph - N/A   Clear
7:35 PM -1.5 °F -19.8 °F -8.5 °F 72% 30.27 in 10.0 mi West 12.7 mph - N/A   Clear
7:55 PM -1.3 °F -21.0 °F -8.3 °F 72% 30.26 in 10.0 mi West 15.0 mph - N/A   Clear
8:15 PM -1.3 °F -20.3 °F -8.1 °F 73% 30.26 in 10.0 mi West 13.8 mph - N/A   Clear
8:35 PM -1.7 °F -18.3 °F -8.0 °F 75% 30.27 in 10.0 mi West 10.4 mph - N/A   Clear
8:55 PM -2.2 °F -19.9 °F -8.1 °F 76% 30.27 in 10.0 mi West 11.5 mph - N/A   Clear
9:15 PM -2.2 °F -21.5 °F -8.0 °F 76% 30.26 in 10.0 mi West 13.8 mph - N/A   Clear
9:35 PM -2.0 °F -17.7 °F -7.8 °F 76% 30.27 in 10.0 mi West 9.2 mph - N/A   Clear
9:54 PM -2.9 °F -19.8 °F -8.1 °F 78% 30.26 in 10.0 mi West 10.4 mph - N/A   Clear
10:15 PM -2.2 °F -19.9 °F -7.8 °F 77% 30.26 in 10.0 mi West 11.5 mph - N/A   Clear
10:34 PM -2.2 °F -18.9 °F -7.6 °F 78% 30.27 in 10.0 mi West 10.4 mph - N/A   Clear
10:55 PM -1.5 °F -19.0 °F -7.2 °F 77% 30.27 in 10.0 mi West 11.5 mph - N/A   Clear
11:15 PM -1.3 °F -19.6 °F -6.9 °F 77% 30.27 in 10.0 mi West 12.7 mph - N/A   Clear
11:35 PM -0.9 °F -19.1 °F -6.7 °F 77% 30.27 in 10.0 mi West 12.7 mph - N/A   Clear
11:55 PM -0.8 °F -18.0 °F -6.9 °F 75% 30.27 in 10.0 mi WNW 11.5 mph - N/A   Clear